Location: Melbourne
(37.8666°S, 145.1333°E)
Time: 18:29:03
(UTC+10:00)

Daily predictions for brighter satellites

Satellite Brightness Start Highest point End
(mag) Time Altitude Azimuth Time Altitude Azimuth Time Altitude Azimuth
Cosmos 1821 Rocket 4.5 18:07:42 10° S 18:13:38 39° ESE 18:19:25 10° NE
CZ-2C R/B 3.0 18:13:14 10° SSE 18:17:41 35° E 18:22:13 10° NNE
Cosmos 1633 2.6 18:18:23 10° S 18:22:09 61° E 18:25:51 10° NNE
Cosmos 1455 Rocket 4.1 18:18:57 10° SSE 18:22:38 25° ESE 18:26:17 10° NE
Cosmos 1975 Rocket 3.2 18:20:33 10° N 18:25:04 89° ENE 18:29:38 10° S
IDEFIX/ARIANE 42P 3.0 18:23:10 10° SSE 18:28:07 40° E 18:32:59 10° NNE
SPOT 3 Rocket 3.6 18:22:49 10° SSE 18:28:08 78° ENE 18:33:20 10° N
Cosmos 1697 Rocket 2.8 18:24:06 10° SSW 18:29:45 60° ESE 18:35:22 10° NE
Okean 3 4.1 18:25:49 10° NNW 18:30:00 62° W 18:34:18 10° S
Helios 1B rocket 2.8 18:26:32 10° N 18:30:39 72° WNW 18:34:50 10° SSW
Atlas Centaur 2 3.2 18:25:08 10° WNW 18:31:27 40° N 18:36:29 10° ENE
Meteor 2-21 4.5 18:25:59 10° S 18:32:14 70° E 18:38:26 10° NNE
YAOGAN 1 2.5 18:29:19 10° SSE 18:33:44 73° ENE 18:38:05 10° N
SL-16 R/B 3.8 18:30:37 10° SSE 18:34:01 16° SE 18:36:51 12° E
USA 229 DEB 3.9 18:29:44 10° NNW 18:36:59 88° SW 18:44:14 10° SSE
USA 229 3.9 18:29:49 10° NNW 18:37:05 89° SW 18:44:20 10° SSE
Nadezhda 3 Rocket 4.3 18:32:26 10° NNW 18:38:38 74° W 18:44:53 10° S
Cosmos 1536 Rocket 4.1 18:34:50 10° NNE 18:38:49 36° E 18:42:52 10° SSE
Abrixas rocket 2.2 18:37:12 10° SW 18:40:40 86° SE 18:44:00 11° ENE
MOS 1 4.4 18:37:37 10° SSE 18:43:23 82° WSW 18:49:03 10° NNW
MONITOR-E 4.3 18:46:37 10° SSE 18:49:53 58° E 18:53:06 10° N
Meteor 2-14 Rocket 4.4 18:43:53 10° S 18:50:04 70° E 18:56:12 10° NNE
Cosmos 1536 3.6 18:46:25 10° SSW 18:50:25 57° W 18:54:22 10° N
Cosmos 1980 Rocket 2.3 18:46:26 10° SSW 18:51:59 55° ESE 18:57:31 10° NE
Cosmos 468 Rocket 4.0 18:48:03 10° SSW 18:53:20 64° ESE 18:58:30 10° NNE
Cosmos 1727 Rocket 4.3 18:50:10 10° NNE 18:56:07 43° E 19:02:07 10° SSE
NOSS 3-1 (A) 4.5 18:48:39 10° N 18:56:17 41° ENE 19:03:28 10° SE
Cosmos 1544 Rocket 3.5 18:52:13 10° S 18:56:38 85° E 19:00:59 10° N
PSLV R/B 4.5 18:55:04 10° W 18:58:13 37° NNW 19:00:54 13° NE
Centaur D AC-29 3.0 18:56:18 10° NNW 18:58:56 20° NNE 19:01:33 14° ENE
GEOS 3 Rocket 3.6 18:55:16 10° NE 19:00:30 90° WNW 19:05:51 10° SW
COS B Rocket 2.7 18:57:54 10° N 19:00:48 81° W 19:04:09 10° S
Cosmos 841 Rocket 4.2 18:56:19 10° S 19:01:04 32° ESE 19:04:03 19° ENE
Cosmos 1814 Rocket 4.0 18:56:18 10° SSW 19:01:38 64° ESE 19:06:57 10° NNE
NOSS 3-1 (C) 4.1 19:01:22 10° NNW 19:09:36 63° ENE 19:17:15 10° SE
Cosmos 2082 Rocket 4.1 19:07:22 10° WNW 19:12:15 29° WSW 19:17:11 10° S
Cosmos 1484 Rocket 2.7 19:09:40 10° SSE 19:13:41 62° E 19:17:33 10° N
ATLAS 2AS CENTAUR R/B 4.4 19:11:22 10° NE 19:11:56 11° NE 19:11:56 11° NE
MSX 3.7 19:10:20 10° SSE 19:16:10 73° ENE 19:21:56 10° N
Cosmos 1934 Rocket 4.0 19:10:15 10° S 19:16:24 80° W 19:22:27 10° N
SAR-Lupe-1 4.1 19:14:08 10° SSE 19:17:42 53° E 19:21:13 10° N
Cosmos 1812 2.7 19:18:30 10° N 19:22:25 89° W 19:26:24 10° S
Cosmos 2322 Rocket 2.7 19:18:11 10° S 19:23:31 39° ESE 19:24:59 33° E
Cosmos 1503 Rocket 4.1 19:18:31 10° N 19:23:45 55° ENE 19:29:00 10° SSE
Gbstr 26 Del rocket 3.0 19:22:38 10° WNW 19:26:39 63° SW 19:28:03 35° SSE
Cosmos 2360 4.1 19:24:50 10° SSW 19:30:37 84° ESE 19:35:52 12° NNE
Cosmos 1975 2.7 19:31:22 10° S 19:35:30 83° E 19:38:03 23° N
Cosmos 44 Rocket 4.5 19:32:41 10° N 19:35:01 25° NNE 19:35:01 25° NNE
Okean 1 3.7 19:37:52 10° NNW 19:41:52 64° W 19:45:54 10° S
Nimbus 7 Rocket 4.5 19:39:25 33° NE 19:41:58 56° ESE 19:47:51 10° S
GPS 2-05 Rocket1 3.8 19:48:02 10° W 19:51:00 48° NW 19:51:00 48° NW
SJ-6B 3.0 19:54:39 69° WSW 19:54:44 69° WSW 19:58:36 10° NNW
Cosmos 2173 Rocket 4.0 19:51:39 10° S 19:57:56 59° E 19:58:19 58° E
NOAA 12 4.0 19:55:37 10° SSE 20:01:01 90° WSW 20:06:20 10° NNW
Okean 1-7 Rocket 4.0 19:58:58 10° NNW 20:03:24 63° W 20:07:58 10° S
Cosmos 836 Rocket 4.4 19:59:54 10° SSW 20:04:58 81° SSE 20:04:58 81° SSE
Meteor 1-13 Rocket 4.2 20:02:45 10° NNW 20:08:20 80° W 20:13:56 10° S
Cosmos 2100 Rocket 3.9 20:02:30 10° S 20:08:59 80° E 20:10:24 57° NNE
SL-8 R/B 4.0 20:04:36 10° NW 20:08:36 61° WNW 20:08:36 61° WNW
Cosmos 2061 Rocket 3.9 20:04:21 10° S 20:10:54 75° E 20:11:24 71° ENE
SL-16 R/B 2.2 20:13:03 10° SSW 20:18:47 77° WNW 20:18:47 77° WNW
Atlas Centaur 2 3.3 20:14:57 10° WNW 20:19:23 30° NNW 20:19:23 30° NNW
Cosmos 2360 Rocket 3.8 20:30:47 10° SSW 20:33:09 25° S 20:33:09 25° S
ATLAS 3B R/B 3.9 20:38:10 10° SSW 20:42:20 31° S 20:42:20 31° S
Cosmos 1459 Rocket 4.5 20:39:58 10° SSW 20:45:58 55° W 20:45:58 55° W
USA 184 4.3 20:49:25 10° SSW 20:57:08 66° ESE 21:31:41 10° NE
Cosmos 2322 Rocket 4.0 21:02:39 10° SW 21:06:53 26° W 21:06:53 26° W
